Date String (YYYY-MM-DD hh:mm:ss) UTC,Instrument flags,absolute air pressure of the measurement (hPa),sample flow rate (lpm),inlet stack bypass flow (lpm),air temperature of the measurement (°C),ambient temperature measured by the external sensor (°C),aerosol sample conditioner tube jacket temperature (°C),OPC LED temperature (°C),internal box temperature (°C),relative humidity of the measurement (%),span deviation,mass concentration of particles derived from Lorenz-Mie calculation of OPC scattering (μg/m³),mass concentration of particles derived from Lorenz-Mie calculation of OPC scattering (μg/m³),mass concentration of particles derived from Lorenz-Mie calculation of OPC scattering (μg/m³)
DateTimeUTC,F1_M11,P_M11,Q1_M11,Q2_M11,T1_M11,T2_M11,T3_M11,T4_M11,T5_M11,U1_M11,ZSPAN_M11,X0_M11,X2_M11,X1_M11
2024-03-21 19:00:00,SystemResetWarning,0825.3,5.00,000.00,024.1,023.6,000.0,032.3,025.9,11.9,0000.0,0004.69,0002.10,0001.60
2024-03-21 19:01:00,SystemResetWarning,0825.2,5.00,000.00,024.1,023.6,000.0,032.3,025.9,11.7,0000.0,0004.70,0002.11,0001.60
2024-03-21 19:02:00,SystemResetWarning,0825.3,5.00,000.00,024.1,023.6,000.0,032.3,025.9,11.2,0000.0,0004.83,0002.16,0001.61
2024-03-21 19:03:00,SystemResetWarning,0825.2,5.00,000.00,024.1,023.7,000.0,032.4,026.0,11.2,0000.0,0004.60,0002.22,0001.61
2024-03-21 19:04:00,SystemResetWarning,0825.2,5.01,000.00,024.2,023.7,000.0,032.4,026.0,11.4,0000.0,0004.14,0002.20,0001.61
2024-03-21 19:05:00,SystemResetWarning,0825.2,5.00,000.00,024.2,023.7,000.0,032.4,026.0,11.3,0000.0,0004.65,0002.21,0001.62
2024-03-21 19:06:00,SystemResetWarning,0825.2,5.00,000.00,024.2,023.7,000.0,032.4,026.0,11.5,0000.0,0005.33,0002.17,0001.62
2024-03-21 19:07:00,SystemResetWarning,0825.2,5.00,000.00,024.2,023.7,000.0,032.4,026.0,11.3,0000.0,0005.25,0002.16,0001.63
2024-03-21 19:08:00,SystemResetWarning,0825.1,5.01,000.00,024.2,023.7,000.0,032.5,026.1,11.1,0000.0,0005.69,0002.19,0001.64
2024-03-21 19:09:00,SystemResetWarning,0825.1,5.00,000.00,024.2,023.8,000.0,032.5,026.1,11.4,0000.0,0005.73,0002.20,0001.66
2024-03-21 19:10:00,SystemResetWarning,0825.1,5.00,000.00,024.3,023.8,000.0,032.5,026.1,11.0,0000.0,0005.37,0002.23,0001.68
2024-03-21 19:11:00,SystemResetWarning,0825.1,5.00,000.00,024.3,023.8,000.0,032.5,026.1,11.5,0000.0,0005.20,0002.21,0001.68
2024-03-21 19:12:00,SystemResetWarning,0825.1,4.99,000.00,024.3,023.8,000.0,032.5,026.1,11.7,0000.0,0005.16,0002.21,0001.68
2024-03-21 19:13:00,SystemResetWarning,0825.1,5.00,000.00,024.3,023.8,000.0,032.5,026.2,11.9,0000.0,0006.01,0002.22,0001.67
2024-03-21 19:14:00,SystemResetWarning,0825.0,5.00,000.00,024.3,023.8,000.0,032.5,026.2,11.4,0000.0,0007.53,0002.20,0001.68
2024-03-21 19:15:00,SystemResetWarning,0825.0,5.00,000.00,024.4,023.9,000.0,032.6,026.2,12.1,0000.0,0009.89,0002.24,0001.69
2024-03-21 19:16:00,SystemResetWarning,0825.0,4.99,000.00,024.4,023.9,000.0,032.6,026.2,12.3,0000.0,0010.13,0002.28,0001.68
2024-03-21 19:17:00,SystemResetWarning,0825.1,4.99,000.00,024.4,023.9,000.0,032.6,026.2,12.1,0000.0,0009.74,0002.31,0001.68
2024-03-21 19:18:00,SystemResetWarning,0825.0,5.00,000.00,024.4,023.9,000.0,032.6,026.2,11.6,0000.0,0009.55,0002.33,0001.69
2024-03-21 19:19:00,SystemResetWarning,0825.0,5.00,000.00,024.4,023.9,000.0,032.7,026.3,11.8,0000.0,0009.43,0002.31,0001.68
2024-03-21 19:20:00,SystemResetWarning,0824.9,5.00,000.00,024.4,024.0,000.0,032.7,026.3,11.4,0000.0,0009.30,0002.30,0001.70
2024-03-21 19:21:00,SystemResetWarning,0825.0,5.01,000.00,024.5,024.0,000.0,032.7,026.3,11.7,0000.0,0009.24,0002.28,0001.71
2024-03-21 19:22:00,SystemResetWarning,0824.9,5.00,000.00,024.5,024.0,000.0,032.7,026.3,11.2,0000.0,0009.24,0002.29,0001.73
2024-03-21 19:23:00,SystemResetWarning,0824.9,4.98,000.00,024.5,024.0,000.0,032.7,026.3,11.2,0000.0,0009.34,0002.36,0001.75
2024-03-21 19:24:00,SystemResetWarning,0824.9,5.01,000.00,024.5,024.0,000.0,032.7,026.4,11.2,0000.0,0009.49,0002.40,0001.77
2024-03-21 19:25:00,SystemResetWarning,0824.9,5.01,000.00,024.5,024.0,000.0,032.8,026.4,11.5,0000.0,0008.57,0002.41,0001.78
2024-03-21 19:26:00,SystemResetWarning,0824.9,5.01,000.00,024.6,024.1,000.0,032.8,026.4,11.3,0000.0,0005.77,0002.39,0001.79
2024-03-21 19:27:00,SystemResetWarning,0824.9,4.99,000.00,024.6,024.1,000.0,032.8,026.4,11.3,0000.0,0004.17,0002.35,0001.80
2024-03-21 19:28:00,SystemResetWarning,0824.9,4.99,000.00,024.6,024.1,000.0,032.8,026.4,10.9,0000.0,0004.13,0002.31,0001.81
2024-03-21 19:29:00,SystemResetWarning,0824.9,5.00,000.00,024.6,024.1,000.0,032.8,026.4,11.3,0000.0,0004.19,0002.33,0001.81
2024-03-21 19:30:00,SystemResetWarning,0824.9,5.00,000.00,024.6,024.1,000.0,032.9,026.4,11.1,0000.0,0004.29,0002.38,0001.83
2024-03-21 19:31:00,SystemResetWarning,0824.9,5.01,000.00,024.6,024.1,000.0,032.9,026.5,10.9,0000.0,0004.31,0002.39,0001.82
2024-03-21 19:32:00,SystemResetWarning,0824.9,5.01,000.00,024.7,024.2,000.0,032.9,026.5,10.8,0000.0,0004.42,0002.41,0001.82
2024-03-21 19:33:00,SystemResetWarning,0824.9,4.99,000.00,024.7,024.2,000.0,032.9,026.5,11.3,0000.0,0004.44,0002.41,0001.80
2024-03-21 19:34:00,SystemResetWarning,0824.9,4.99,000.00,024.7,024.2,000.0,032.9,026.5,11.2,0000.0,0004.40,0002.37,0001.79
2024-03-21 19:35:00,SystemResetWarning,0824.9,4.99,000.00,024.7,024.2,000.0,032.9,026.5,11.2,0000.0,0004.07,0002.37,0001.78
2024-03-21 19:36:00,SystemResetWarning,0824.9,5.01,000.00,024.7,024.2,000.0,033.0,026.6,11.2,0000.0,0004.16,0002.37,0001.77
2024-03-21 19:37:00,SystemResetWarning,0824.8,5.01,000.00,024.7,024.2,000.0,033.0,026.6,11.1,0000.0,0004.24,0002.42,0001.77
2024-03-21 19:38:00,SystemResetWarning,0824.8,4.99,000.00,024.8,024.2,000.0,033.0,026.6,11.1,0000.0,0004.43,0002.44,0001.77
2024-03-21 19:39:00,SystemResetWarning,0824.8,4.99,000.00,024.8,024.3,000.0,033.0,026.6,11.7,0000.0,0005.40,0002.48,0001.78
2024-03-21 19:40:00,SystemResetWarning,0824.8,4.99,000.00,024.8,024.3,000.0,033.0,026.6,11.5,0000.0,0005.51,0002.48,0001.78
2024-03-21 19:41:00,SystemResetWarning,0824.8,4.99,000.00,024.8,024.3,000.0,033.0,026.6,11.0,0000.0,0005.49,0002.47,0001.79
2024-03-21 19:42:00,SystemResetWarning,0824.7,5.02,000.00,024.9,024.3,000.0,033.1,026.7,11.3,0000.0,0005.51,0002.47,0001.79
2024-03-21 19:43:00,SystemResetWarning,0824.7,5.01,000.00,024.9,024.3,000.0,033.1,026.7,10.8,0000.0,0005.52,0002.47,0001.78
2024-03-21 19:44:00,SystemResetWarning,0824.7,5.00,000.00,024.9,024.4,000.0,033.1,026.7,11.2,0000.0,0005.65,0002.49,0001.78
2024-03-21 19:45:00,SystemResetWarning,0824.7,4.99,000.00,024.9,024.4,000.0,033.1,026.7,11.5,0000.0,0005.80,0002.50,0001.79
2024-03-21 19:46:00,SystemResetWarning,0824.7,5.00,000.00,024.9,024.4,000.0,033.1,026.7,10.9,0000.0,0006.09,0002.57,0001.79
2024-03-21 19:47:00,SystemResetWarning,0824.7,5.01,000.00,024.9,024.4,000.0,033.2,026.7,11.0,0000.0,0005.98,0002.55,0001.79
2024-03-21 19:48:00,SystemResetWarning,0824.7,5.01,000.00,025.0,024.4,000.0,033.2,026.8,11.0,0000.0,0007.16,0002.50,0001.79
2024-03-21 19:49:00,SystemResetWarning,0824.7,4.99,000.00,025.0,024.4,000.0,033.2,026.8,11.2,0000.0,0007.83,0002.51,0001.79
2024-03-21 19:50:00,SystemResetWarning,0824.7,4.99,000.00,025.0,024.5,000.0,033.2,026.8,10.9,0000.0,0007.71,0002.51,0001.79
2024-03-21 19:51:00,SystemResetWarning,0824.6,5.01,000.00,025.0,024.5,000.0,033.2,026.8,10.8,0000.0,0008.26,0002.51,0001.80
2024-03-21 19:52:00,SystemResetWarning,0824.6,5.01,000.00,025.0,024.5,000.0,033.3,026.8,10.7,0000.0,0008.36,0002.53,0001.81
2024-03-21 19:53:00,SystemResetWarning,0824.6,5.01,000.00,025.0,024.5,000.0,033.3,026.8,11.2,0000.0,0009.26,0002.56,0001.82
2024-03-21 19:54:00,SystemResetWarning,0824.5,4.98,000.00,025.1,024.5,000.0,033.3,026.8,11.2,0000.0,0009.42,0002.57,0001.82
2024-03-21 19:55:00,SystemResetWarning,0824.6,5.01,000.00,025.1,024.5,000.0,033.3,026.8,11.3,0000.0,0009.98,0002.57,0001.82
2024-03-21 19:56:00,SystemResetWarning,0824.5,5.00,000.00,025.1,024.5,000.0,033.3,026.9,10.8,0000.0,0010.01,0002.58,0001.82
2024-03-21 19:57:00,SystemResetWarning,0824.4,5.00,000.00,025.1,024.5,000.0,033.3,026.9,11.1,0000.0,0009.85,0002.53,0001.83
2024-03-21 19:58:00,SystemResetWarning,0824.4,4.99,000.00,025.1,024.5,000.0,033.4,026.9,11.2,0000.0,0009.96,0002.60,0001.84
2024-03-21 19:59:00,SystemResetWarning,0824.4,5.00,000.00,025.1,024.5,000.0,033.4,026.9,11.4,0000.0,0009.32,0002.66,0001.85
